User: anonymous   Login
Location: Dover
(39.1580°N, 75.5250°W)
Time: 17:35:32
(UTC-04:00)
Language:

Cosmos 1437 Rocket - Orbit

View from above orbital plane
View from above orbital plane
View from above satellite
View from above satellite

Ground track
Ground track

The orbit data is extracted from the following two-line orbital elements,

1 13771U 83003B   17115.85752349 +.00001507 +00000-0 +90032-4 0  9992
2 13771 081.1438 063.0227 0043080 178.5229 181.6132 15.09706914865895
Epoch (UTC): 25 April 2017 20:34:50
Eccentricity: 0.0043080
inclination: 81.1438°
perigee height: 507 km
apogee height: 567 km
right ascension of ascending node: 63.0227°
argument of perigee: 178.5229°
revolutions per day: 15.09706914
mean anomaly at epoch: 181.6132°
orbit number at epoch: 86589

The dashed part of the orbit path shows where the satellite is in the earth's shadow,  

DLR